Location: Chiroubles
(46.1812°N, 4.6660°E)
Time: 17:10:54
(UTC+00:00)

Cosmos 1933 Rocket - Pass Details

Date: 15 August 2020
Orbit: 606 x 630 km, 82.5° (Epoch: 23 September)

Event Time Altitude Azimuth Distance (km) Brightness Sun altitude
Exits shadow 20:42:58 11° 195° (SSW) 1,956 5.8 -17.4°
Maximum altitude 20:47:17 71° 280° (W) 665 3.8 -17.9°
Drops below altitude 10° 20:51:45 10° 5° (N) 2,017 6.7 -18.5°
Sets 20:54:01 0° 8° (N) 2,931 7.6 -18.8°
